TimeCST,TemperatureF,Dew PointF,Humidity,Sea Level PressureIn,VisibilityMPH,Wind Direction,Wind SpeedMPH,Gust SpeedMPH,PrecipitationIn,Events,Conditions,WindDirDegrees,DateUTC
12:15 AM,53.6,42.8,67,30.14,10.0,South,9.2,-,N/A,,Overcast,190,2011-11-07 06:15:00
12:35 AM,53.6,42.8,67,30.15,10.0,SSW,9.2,-,N/A,,Overcast,200,2011-11-07 06:35:00
12:55 AM,53.6,42.8,67,30.15,10.0,South,6.9,-,N/A,,Mostly Cloudy,190,2011-11-07 06:55:00
1:15 AM,51.8,42.8,71,30.15,10.0,South,5.8,-,N/A,,Mostly Cloudy,190,2011-11-07 07:15:00
1:35 AM,51.8,42.8,71,30.16,10.0,South,4.6,-,N/A,,Scattered Clouds,190,2011-11-07 07:35:00
1:55 AM,51.8,42.8,71,30.16,10.0,South,5.8,-,N/A,,Scattered Clouds,180,2011-11-07 07:55:00
2:15 AM,51.8,42.8,71,30.16,10.0,South,4.6,-,N/A,,Overcast,180,2011-11-07 08:15:00
2:35 AM,51.8,42.8,71,30.16,10.0,South,4.6,-,N/A,,Overcast,170,2011-11-07 08:35:00
2:55 AM,53.6,44.6,72,30.17,10.0,South,4.6,-,N/A,,Overcast,180,2011-11-07 08:55:00
3:15 AM,53.6,44.6,72,30.17,10.0,South,4.6,-,N/A,,Overcast,190,2011-11-07 09:15:00
3:35 AM,53.6,44.6,72,30.17,10.0,SSW,8.1,-,N/A,,Overcast,200,2011-11-07 09:35:00
3:55 AM,51.8,46.4,82,30.18,10.0,SSW,8.1,-,N/A,Rain,Light Rain,200,2011-11-07 09:55:00
4:15 AM,51.8,48.2,88,30.18,10.0,SSW,9.2,-,N/A,,Light Drizzle,210,2011-11-07 10:15:00
4:35 AM,51.8,48.2,88,30.19,10.0,SSW,8.1,-,N/A,,Overcast,200,2011-11-07 10:35:00
4:55 AM,51.8,48.2,88,30.19,10.0,South,6.9,-,N/A,,Overcast,190,2011-11-07 10:55:00
5:15 AM,51.8,48.2,88,30.20,10.0,South,4.6,-,N/A,,Overcast,190,2011-11-07 11:15:00
5:35 AM,51.8,48.2,88,30.19,10.0,South,6.9,-,N/A,,Overcast,190,2011-11-07 11:35:00
5:55 AM,51.8,48.2,88,30.20,10.0,South,4.6,-,N/A,,Overcast,180,2011-11-07 11:55:00
6:15 AM,51.8,48.2,88,30.20,10.0,South,6.9,-,N/A,,Overcast,190,2011-11-07 12:15:00
6:35 AM,51.8,50.0,94,30.21,10.0,South,5.8,-,N/A,,Overcast,190,2011-11-07 12:35:00
6:55 AM,51.8,50.0,94,30.21,10.0,South,5.8,-,N/A,,Overcast,190,2011-11-07 12:55:00
7:15 AM,51.8,50.0,94,30.22,10.0,South,5.8,-,N/A,,Overcast,190,2011-11-07 13:15:00
7:35 AM,51.8,50.0,94,30.22,10.0,South,5.8,-,N/A,,Overcast,190,2011-11-07 13:35:00
7:55 AM,51.8,50.0,94,30.22,10.0,South,5.8,-,N/A,,Overcast,190,2011-11-07 13:55:00
8:15 AM,53.6,50.0,88,30.22,10.0,South,4.6,-,N/A,,Overcast,190,2011-11-07 14:15:00
8:35 AM,53.6,50.0,88,30.23,10.0,South,5.8,-,N/A,,Overcast,190,2011-11-07 14:35:00
8:55 AM,53.6,50.0,88,30.23,10.0,South,6.9,-,N/A,,Overcast,190,2011-11-07 14:55:00
9:15 AM,53.6,50.0,88,30.23,10.0,SSW,4.6,-,N/A,,Overcast,210,2011-11-07 15:15:00
9:35 AM,53.6,50.0,88,30.23,10.0,South,3.5,-,N/A,,Overcast,190,2011-11-07 15:35:00
9:55 AM,53.6,50.0,88,30.23,10.0,South,3.5,-,N/A,,Overcast,180,2011-11-07 15:55:00
10:15 AM,53.6,50.0,88,30.23,10.0,South,3.5,-,N/A,,Overcast,180,2011-11-07 16:15:00
10:35 AM,53.6,50.0,88,30.23,10.0,South,4.6,-,N/A,,Overcast,170,2011-11-07 16:35:00
10:55 AM,53.6,50.0,88,30.23,10.0,South,4.6,-,N/A,,Overcast,180,2011-11-07 16:55:00
11:15 AM,53.6,50.0,88,30.23,10.0,South,5.8,-,N/A,Rain,Light Rain,180,2011-11-07 17:15:00
11:35 AM,53.6,51.8,94,30.22,5.0,South,4.6,-,0.01,Rain,Light Rain,170,2011-11-07 17:35:00
11:55 AM,53.6,51.8,94,30.21,4.0,Calm,Calm,-,0.03,Rain,Light Rain,0,2011-11-07 17:55:00
12:15 PM,53.6,51.8,94,30.20,5.0,Calm,Calm,-,0.01,Rain,Light Rain,0,2011-11-07 18:15:00
12:35 PM,53.6,51.8,94,30.19,7.0,Calm,Calm,-,0.01,,Overcast,0,2011-11-07 18:35:00
12:55 PM,53.6,51.8,94,30.19,7.0,Calm,Calm,-,0.01,,Overcast,0,2011-11-07 18:55:00
1:15 PM,53.6,51.8,94,30.19,10.0,Calm,Calm,-,N/A,,Overcast,0,2011-11-07 19:15:00
1:35 PM,53.6,51.8,94,30.19,7.0,SE,3.5,-,N/A,Rain,Rain,140,2011-11-07 19:35:00
1:55 PM,53.6,51.8,94,30.18,7.0,SE,3.5,-,N/A,Rain,Rain,140,2011-11-07 19:55:00
2:15 PM,53.6,51.8,94,30.18,7.0,Calm,Calm,-,N/A,,Overcast,0,2011-11-07 20:15:00
2:35 PM,53.6,51.8,94,30.18,10.0,Calm,Calm,-,N/A,,Overcast,0,2011-11-07 20:35:00
2:55 PM,53.6,51.8,94,30.18,10.0,Calm,Calm,-,N/A,,Overcast,0,2011-11-07 20:55:00
3:15 PM,53.6,51.8,94,30.19,7.0,Calm,Calm,-,N/A,,Overcast,0,2011-11-07 21:15:00
3:35 PM,53.6,51.8,94,30.18,3.0,ENE,3.5,-,N/A,Rain,Light Rain,70,2011-11-07 21:35:00
3:55 PM,53.6,51.8,94,30.18,5.0,NE,3.5,-,N/A,,Overcast,50,2011-11-07 21:55:00
4:15 PM,53.6,51.8,94,30.18,4.0,Calm,Calm,-,N/A,,Overcast,0,2011-11-07 22:15:00
4:35 PM,53.6,51.8,94,30.19,5.0,Calm,Calm,-,N/A,,Overcast,0,2011-11-07 22:35:00
4:55 PM,53.6,51.8,94,30.19,4.0,NE,3.5,-,N/A,,Overcast,50,2011-11-07 22:55:00
5:15 PM,53.6,51.8,94,30.19,4.0,Calm,Calm,-,N/A,,Overcast,0,2011-11-07 23:15:00
5:35 PM,53.6,51.8,94,30.19,4.0,ENE,4.6,-,N/A,,Overcast,60,2011-11-07 23:35:00
5:55 PM,53.6,51.8,94,30.19,3.0,NE,4.6,-,N/A,,Overcast,50,2011-11-07 23:55:00
6:15 PM,53.6,51.8,94,30.19,1.5,ENE,4.6,-,N/A,,Overcast,70,2011-11-08 00:15:00
6:35 PM,53.6,51.8,94,30.19,0.5,ENE,4.6,-,N/A,Fog,Fog,70,2011-11-08 00:35:00
6:55 PM,53.6,51.8,94,30.18,0.5,ENE,3.5,-,N/A,Fog,Fog,70,2011-11-08 00:55:00
7:15 PM,53.6,51.8,94,30.18,0.5,ENE,3.5,-,N/A,Fog,Fog,60,2011-11-08 01:15:00
7:35 PM,53.6,51.8,94,30.18,0.5,NE,3.5,-,N/A,Fog,Fog,40,2011-11-08 01:35:00
7:55 PM,53.6,51.8,94,30.19,0.5,Calm,Calm,-,N/A,Fog,Fog,0,2011-11-08 01:55:00
8:15 PM,53.6,51.8,94,30.18,0.5,NE,4.6,-,0.05,Rain,Rain,50,2011-11-08 02:15:00
8:35 PM,53.6,51.8,94,30.19,1.8,NE,4.6,-,0.11,Rain,Light Rain,50,2011-11-08 02:35:00
8:55 PM,53.6,51.8,94,30.18,2.0,NE,3.5,-,0.14,Rain,Rain,50,2011-11-08 02:55:00
9:15 PM,53.6,51.8,94,30.17,2.5,East,5.8,-,0.03,Rain,Light Rain,80,2011-11-08 03:15:00
9:35 PM,53.6,51.8,94,30.16,2.5,ENE,5.8,-,0.05,Rain,Light Rain,70,2011-11-08 03:35:00
9:55 PM,53.6,51.8,94,30.16,2.0,NE,5.8,-,0.05,,Light Drizzle,50,2011-11-08 03:55:00
10:15 PM,53.6,51.8,94,30.15,3.0,ENE,6.9,-,N/A,,Light Drizzle,60,2011-11-08 04:15:00
10:35 PM,53.6,51.8,94,30.14,1.8,ENE,6.9,-,N/A,Rain,Rain,70,2011-11-08 04:35:00
10:55 PM,53.6,51.8,94,30.14,2.0,ENE,6.9,-,N/A,,Overcast,70,2011-11-08 04:55:00
11:15 PM,53.6,51.8,94,30.13,2.0,ENE,5.8,-,0.01,Rain,Rain,60,2011-11-08 05:15:00
11:35 PM,53.6,51.8,94,30.12,1.8,ENE,6.9,-,0.01,,Overcast,70,2011-11-08 05:35:00
11:55 PM,53.6,51.8,94,30.12,1.5,East,5.8,-,0.02,,Heavy Drizzle,80,2011-11-08 05:55:00